This is the latest recevied weather packets stored in our database for station/object KC3UTO. If no packets are shown the sender has not sent any weather packets the latest 10 day(s).
| Time | Temp. | Humidity | Pressure | Rain* | Wind** | Luminosity | Snow |
|---|---|---|---|---|---|---|---|
| 1777855905 | 12.22° C | 38% | 1012.1 hPa | 0 mm | - | 0 W/m² | - |
| 1777855603 | 12.22° C | 37% | 1012 hPa | 0 mm | - | 0 W/m² | - |
| 1777855300 | 12.22° C | 37% | 1012 hPa | 0 mm | - | 0 W/m² | - |
| 1777854996 | 12.78° C | 37% | 1011.9 hPa | 0 mm | - | 0 W/m² | - |
| 1777854693 | 12.78° C | 37% | 1011.7 hPa | 0 mm | - | 0 W/m² | - |
| 1777854390 | 12.78° C | 36% | 1011.7 hPa | 0 mm | - | 0 W/m² | - |
| 1777854087 | 12.78° C | 36% | 1011.7 hPa | 0 mm | - | 0 W/m² | - |
| 1777853785 | 13.33° C | 35% | 1011.6 hPa | 0 mm | - | 0 W/m² | - |
| 1777853481 | 13.33° C | 36% | 1011.6 hPa | 0 mm | - | 1 W/m² | - |
| 1777853179 | 13.33° C | 35% | 1011.5 hPa | 0 mm | - | 1 W/m² | - |
| 1777852876 | 13.33° C | 35% | 1011.5 hPa | 0 mm | - | 2 W/m² | - |
| 1777852574 | 13.89° C | 34% | 1011.6 hPa | 0 mm | - | 4 W/m² | - |
| 1777852270 | 13.89° C | 34% | 1011.2 hPa | 0 mm | - | 6 W/m² | - |
| 1777851968 | 13.89° C | 33% | 1011.3 hPa | 0 mm | - | 9 W/m² | - |
| 1777851666 | 14.44° C | 32% | 1011.1 hPa | 0 mm | - | 12 W/m² | - |
| 1777851363 | 14.44° C | 33% | 1011.3 hPa | 0 mm | - | 15 W/m² | - |
| 1777851058 | 14.44° C | 32% | 1011.2 hPa | 0 mm | - | 18 W/m² | - |
| 1777850755 | 15° C | 31% | 1011.1 hPa | 0 mm | - | 21 W/m² | - |
| 1777850453 | 15° C | 32% | 1011.1 hPa | 0 mm | - | 24 W/m² | - |
| 1777850151 | 15° C | 30% | 1011 hPa | 0 mm | - | 27 W/m² | - |
| 1777849847 | 15° C | 31% | 1011.1 hPa | 0 mm | - | 29 W/m² | - |
| 1777849544 | 15° C | 31% | 1011.2 hPa | 0 mm | - | 32 W/m² | - |
| 1777849241 | 15.56° C | 30% | 1011 hPa | 0 mm | - | 40 W/m² | - |
| 1777848938 | 15.56° C | 30% | 1011 hPa | 0 mm | - | 38 W/m² | - |
| 1777848633 | 15.56° C | 29% | 1011 hPa | 0 mm | - | 40 W/m² | - |
* Rain latest hour (hover to see other rain measurements)
** Current wind speed in m/s (hover to see current wind gust speed)